Language: 


Des rapports , des résumés tant et plus, au choix de chacun....


Données statistiques de la station
Quotidien Rapport Juillet 7, 2017 Unités:  Métrique    Anglais   les deux
« Précédent Jour
Suivant Jour »
Quotidien Hebdomadaire Mensuel Annuel Actuel
  Haut: Bas: Moyen:
Température: 31.6 °C 16.9 °C 26.9 °C
Pt de rosée: 21.0 °C 9.0 °C 14.3 °C
Humidité: 78 % 30 % 47 %
Vitesse du vent: 22.4 km/h 0.0 km/h 8.8 km/h
Rafales: 24.8 km/h - -
Vent:- - West
Pression: 1016.8 hPa 1014.1 hPa -
Précipitation: 0.0 mm    
Historical Graphs
 
 
Données statistiques pour Juillet 7, 2017
Heure Température Point de rosée Pression Vent Vitesse du vent Refales Humidité Pluie (taux horaire)
09:39 23.6 °C 20.0 °C 1015.1 hPa WSW 12.6 km/h 15.4 km/h 78 % 0.0 mm
09:44 23.6 °C 20.0 °C 1015.1 hPa West 9.3 km/h 16.3 km/h 77 % 0.0 mm
09:49 23.8 °C 20.0 °C 1015.1 hPa WSW 5.5 km/h 17.2 km/h 77 % 0.0 mm
09:54 23.9 °C 20.0 °C 1015.1 hPa WNW 6.9 km/h 17.2 km/h 76 % 0.0 mm
09:59 24.3 °C 20.0 °C 1014.1 hPa West 9.0 km/h 17.7 km/h 76 % 0.0 mm
10:04 24.4 °C 20.0 °C 1014.1 hPa West 12.6 km/h 20.6 km/h 75 % 0.0 mm
10:10 24.5 °C 20.0 °C 1014.1 hPa West 10.1 km/h 20.6 km/h 74 % 0.0 mm
10:15 24.6 °C 20.0 °C 1014.1 hPa West 16.3 km/h 16.9 km/h 74 % 0.0 mm
10:20 24.8 °C 20.0 °C 1014.1 hPa WSW 6.1 km/h 16.9 km/h 73 % 0.0 mm
10:25 25.0 °C 20.0 °C 1014.1 hPa West 9.3 km/h 17.7 km/h 73 % 0.0 mm
10:30 25.1 °C 20.0 °C 1014.1 hPa West 15.8 km/h 17.7 km/h 73 % 0.0 mm
10:35 25.4 °C 20.0 °C 1014.1 hPa WNW 8.7 km/h 16.3 km/h 72 % 0.0 mm
10:40 25.5 °C 20.0 °C 1014.1 hPa WSW 9.0 km/h 16.3 km/h 71 % 0.0 mm
10:45 25.6 °C 20.0 °C 1015.1 hPa West 10.5 km/h 18.0 km/h 70 % 0.0 mm
10:50 25.8 °C 20.0 °C 1015.1 hPa West 10.1 km/h 19.8 km/h 70 % 0.0 mm
10:55 26.1 °C 20.0 °C 1015.1 hPa WSW 9.0 km/h 19.8 km/h 69 % 0.0 mm
11:00 26.3 °C 20.0 °C 1014.1 hPa West 16.6 km/h 16.6 km/h 68 % 0.0 mm
11:05 26.6 °C 21.0 °C 1014.1 hPa West 10.1 km/h 16.6 km/h 68 % 0.0 mm
11:10 26.8 °C 20.0 °C 1014.1 hPa SW 15.8 km/h 16.6 km/h 67 % 0.0 mm
11:15 26.9 °C 20.0 °C 1015.1 hPa West 13.0 km/h 17.7 km/h 66 % 0.0 mm
11:20 27.0 °C 20.0 °C 1015.1 hPa West 13.0 km/h 17.7 km/h 66 % 0.0 mm
11:25 27.3 °C 20.0 °C 1015.1 hPa West 5.0 km/h 16.3 km/h 64 % 0.0 mm
11:30 27.5 °C 21.0 °C 1015.1 hPa West 7.9 km/h 16.3 km/h 64 % 0.0 mm
11:35 27.7 °C 20.0 °C 1015.1 hPa WNW 4.7 km/h 15.8 km/h 62 % 0.0 mm
11:40 27.5 °C 20.0 °C 1015.1 hPa West 13.7 km/h 18.0 km/h 60 % 0.0 mm
11:45 27.8 °C 20.0 °C 1015.1 hPa WSW 9.3 km/h 18.0 km/h 61 % 0.0 mm
11:50 28.1 °C 19.0 °C 1015.1 hPa SSW 10.1 km/h 20.6 km/h 58 % 0.0 mm
11:55 28.0 °C 19.0 °C 1015.1 hPa West 10.8 km/h 20.6 km/h 58 % 0.0 mm
12:00 28.3 °C 20.0 °C 1015.1 hPa NNE 6.4 km/h 20.9 km/h 58 % 0.0 mm
12:05 28.7 °C 20.0 °C 1015.1 hPa West 14.0 km/h 20.9 km/h 57 % 0.0 mm
12:11 29.0 °C 19.0 °C 1015.1 hPa West 5.8 km/h 22.7 km/h 52 % 0.0 mm
12:15 28.6 °C 19.0 °C 1016.1 hPa West 13.7 km/h 22.7 km/h 54 % 0.0 mm
12:21 28.8 °C 18.0 °C 1016.1 hPa West 12.2 km/h 20.1 km/h 51 % 0.0 mm
12:26 28.6 °C 18.0 °C 1016.1 hPa West 5.8 km/h 21.6 km/h 51 % 0.0 mm
12:31 28.6 °C 19.0 °C 1016.1 hPa West 12.2 km/h 21.6 km/h 53 % 0.0 mm
12:36 28.9 °C 18.0 °C 1016.1 hPa West 10.5 km/h 20.9 km/h 50 % 0.0 mm
12:41 29.3 °C 17.0 °C 1016.1 hPa WNW 13.0 km/h 21.2 km/h 48 % 0.0 mm
12:46 29.4 °C 17.0 °C 1016.8 hPa SW 5.8 km/h 21.2 km/h 47 % 0.0 mm
12:51 28.8 °C 17.0 °C 1016.8 hPa West 7.9 km/h 17.2 km/h 49 % 0.0 mm
12:56 29.2 °C 17.0 °C 1016.8 hPa West 11.9 km/h 15.8 km/h 48 % 0.0 mm
13:01 29.6 °C 18.0 °C 1016.8 hPa North 12.2 km/h 13.0 km/h 49 % 0.0 mm
13:06 29.7 °C 18.0 °C 1016.8 hPa WSW 10.1 km/h 12.2 km/h 50 % 0.0 mm
13:11 30.2 °C 19.0 °C 1016.8 hPa WNW 10.5 km/h 13.7 km/h 49 % 0.0 mm
13:16 30.3 °C 18.0 °C 1016.8 hPa West 10.5 km/h 14.0 km/h 46 % 0.0 mm
13:21 30.6 °C 18.0 °C 1016.8 hPa WSW 9.7 km/h 14.0 km/h 45 % 0.0 mm
13:26 29.6 °C 17.0 °C 1016.8 hPa West 9.3 km/h 16.9 km/h 46 % 0.0 mm
13:31 29.5 °C 17.0 °C 1016.8 hPa West 6.9 km/h 19.1 km/h 45 % 0.0 mm
13:36 29.6 °C 16.0 °C 1016.8 hPa West 16.3 km/h 19.1 km/h 44 % 0.0 mm
13:41 29.9 °C 17.0 °C 1016.8 hPa WNW 4.7 km/h 21.2 km/h 45 % 0.0 mm
13:46 30.5 °C 18.0 °C 1016.8 hPa West 13.7 km/h 21.2 km/h 47 % 0.0 mm
13:51 30.5 °C 19.0 °C 1016.8 hPa WNW 12.6 km/h 14.0 km/h 48 % 0.0 mm
13:56 29.7 °C 17.0 °C 1016.8 hPa NW 10.1 km/h 14.8 km/h 47 % 0.0 mm
14:01 29.9 °C 18.0 °C 1016.8 hPa SSE 15.1 km/h 15.1 km/h 49 % 0.0 mm
14:06 30.5 °C 19.0 °C 1016.8 hPa WNW 8.7 km/h 15.1 km/h 50 % 0.0 mm
14:11 31.0 °C 19.0 °C 1016.8 hPa NNW 9.7 km/h 14.0 km/h 49 % 0.0 mm
14:16 30.6 °C 19.0 °C 1016.8 hPa North 5.0 km/h 13.0 km/h 49 % 0.0 mm
14:21 30.7 °C 19.0 °C 1016.8 hPa WNW 3.5 km/h 14.0 km/h 48 % 0.0 mm
14:27 30.9 °C 19.0 °C 1016.8 hPa West 5.0 km/h 14.0 km/h 49 % 0.0 mm
14:32 31.0 °C 18.0 °C 1016.8 hPa WNW 7.9 km/h 11.9 km/h 46 % 0.0 mm
14:37 30.6 °C 19.0 °C 1016.8 hPa Calm   13.0 km/h 48 % 0.0 mm
14:42 30.7 °C 18.0 °C 1016.8 hPa NNW 4.0 km/h 13.0 km/h 47 % 0.0 mm
14:47 31.0 °C 18.0 °C 1016.8 hPa North 12.2 km/h 13.0 km/h 45 % 0.0 mm
14:52 30.6 °C 18.0 °C 1016.8 hPa WNW 9.0 km/h 13.7 km/h 45 % 0.0 mm
14:57 30.6 °C 17.0 °C 1016.8 hPa West 13.0 km/h 19.1 km/h 44 % 0.0 mm
15:02 30.5 °C 16.0 °C 1016.8 hPa WSW 12.6 km/h 20.9 km/h 42 % 0.0 mm
15:07 30.7 °C 17.0 °C 1016.8 hPa West 9.7 km/h 20.9 km/h 44 % 0.0 mm
15:12 31.1 °C 17.0 °C 1016.8 hPa South 13.0 km/h 17.2 km/h 43 % 0.0 mm
15:17 31.0 °C 16.0 °C 1016.8 hPa WSW 9.3 km/h 19.1 km/h 41 % 0.0 mm
15:22 30.9 °C 17.0 °C 1016.8 hPa WSW 5.5 km/h 19.1 km/h 42 % 0.0 mm
15:27 30.8 °C 16.0 °C 1016.8 hPa North 10.5 km/h 13.0 km/h 42 % 0.0 mm
15:32 30.7 °C 16.0 °C 1016.8 hPa WNW 6.9 km/h 13.0 km/h 41 % 0.0 mm
15:37 30.8 °C 16.0 °C 1016.8 hPa West 12.2 km/h 16.3 km/h 40 % 0.0 mm
15:42 31.2 °C 17.0 °C 1016.8 hPa Calm   16.3 km/h 41 % 0.0 mm
15:47 31.6 °C 17.0 °C 1016.8 hPa WNW 10.1 km/h 16.9 km/h 40 % 0.0 mm
15:52 31.1 °C 16.0 °C 1016.8 hPa West 7.6 km/h 16.9 km/h 40 % 0.0 mm
15:57 31.2 °C 15.0 °C 1016.8 hPa West 6.4 km/h 14.0 km/h 38 % 0.0 mm
16:02 31.3 °C 15.0 °C 1016.8 hPa West 13.0 km/h 13.0 km/h 38 % 0.0 mm
16:07 31.2 °C 15.0 °C 1016.8 hPa West 7.6 km/h 16.3 km/h 36 % 0.0 mm
16:12 31.3 °C 14.0 °C 1016.8 hPa WSW 13.7 km/h 16.3 km/h 34 % 0.0 mm
16:17 31.2 °C 13.0 °C 1016.8 hPa West 7.9 km/h 17.2 km/h 33 % 0.0 mm
16:22 31.3 °C 13.0 °C 1016.8 hPa West 9.0 km/h 17.2 km/h 33 % 0.0 mm
16:27 31.2 °C 13.0 °C 1016.8 hPa West 14.8 km/h 16.9 km/h 32 % 0.0 mm
16:32 31.4 °C 13.0 °C 1016.8 hPa West 16.3 km/h 17.2 km/h 33 % 0.0 mm
16:37 31.2 °C 13.0 °C 1016.8 hPa West 8.7 km/h 20.1 km/h 32 % 0.0 mm
16:42 31.2 °C 13.0 °C 1016.8 hPa West 6.9 km/h 24.8 km/h 31 % 0.0 mm
16:44 31.3 °C 13.0 °C 1016.8 hPa WSW 6.1 km/h 24.8 km/h 32 % 0.0 mm
16:49 31.6 °C 13.0 °C 1016.8 hPa WSW 12.2 km/h 19.8 km/h 32 % 0.0 mm
16:54 31.5 °C 13.0 °C 1016.8 hPa West 11.9 km/h 20.1 km/h 31 % 0.0 mm
16:59 31.3 °C 12.0 °C 1016.8 hPa NW 8.7 km/h 20.1 km/h 30 % 0.0 mm
17:04 31.4 °C 12.0 °C 1016.8 hPa SW 4.7 km/h 17.2 km/h 30 % 0.0 mm
17:09 31.3 °C 13.0 °C 1016.8 hPa West 14.0 km/h 16.6 km/h 31 % 0.0 mm
17:14 31.2 °C 13.0 °C 1016.8 hPa WNW 12.6 km/h 19.5 km/h 31 % 0.0 mm
17:19 31.4 °C 13.0 °C 1016.8 hPa WNW 14.0 km/h 19.5 km/h 31 % 0.0 mm
17:24 31.1 °C 12.0 °C 1016.8 hPa SSW 6.1 km/h 16.9 km/h 31 % 0.0 mm
17:29 31.0 °C 13.0 °C 1016.8 hPa West 13.7 km/h 21.2 km/h 32 % 0.0 mm
17:34 30.9 °C 13.0 °C 1016.8 hPa WSW 15.4 km/h 21.2 km/h 33 % 0.0 mm
17:39 30.4 °C 13.0 °C 1016.8 hPa WSW 13.7 km/h 24.5 km/h 33 % 0.0 mm
17:44 30.2 °C 13.0 °C 1016.8 hPa West 13.0 km/h 24.5 km/h 33 % 0.0 mm
17:49 30.2 °C 13.0 °C 1016.8 hPa WSW 17.2 km/h 17.7 km/h 35 % 0.0 mm
17:54 30.0 °C 13.0 °C 1016.8 hPa West 22.4 km/h 22.4 km/h 35 % 0.0 mm
17:59 30.1 °C 13.0 °C 1016.8 hPa WSW 17.2 km/h 22.4 km/h 35 % 0.0 mm
18:04 30.1 °C 13.0 °C 1016.8 hPa West 10.5 km/h 21.9 km/h 35 % 0.0 mm
18:09 30.1 °C 13.0 °C 1016.8 hPa West 9.7 km/h 21.9 km/h 34 % 0.0 mm
18:14 29.7 °C 13.0 °C 1016.8 hPa West 11.9 km/h 17.7 km/h 35 % 0.0 mm
18:20 29.4 °C 12.0 °C 1016.8 hPa West 17.2 km/h 17.7 km/h 34 % 0.0 mm
18:24 29.1 °C 12.0 °C 1016.8 hPa West 17.2 km/h 20.1 km/h 33 % 0.0 mm
18:30 28.8 °C 11.0 °C 1016.8 hPa SSW 15.4 km/h 20.6 km/h 33 % 0.0 mm
18:35 28.7 °C 11.0 °C 1016.8 hPa West 10.5 km/h 21.2 km/h 32 % 0.0 mm
18:40 29.0 °C 11.0 °C 1016.8 hPa West 14.8 km/h 21.2 km/h 32 % 0.0 mm
18:45 28.8 °C 11.0 °C 1016.8 hPa West 11.9 km/h 19.5 km/h 33 % 0.0 mm
18:50 28.1 °C 10.0 °C 1016.8 hPa West 12.6 km/h 19.5 km/h 32 % 0.0 mm
18:55 27.7 °C 10.0 °C 1016.8 hPa West 13.0 km/h 19.5 km/h 33 % 0.0 mm
19:00 27.6 °C 11.0 °C 1016.1 hPa West 10.1 km/h 19.5 km/h 34 % 0.0 mm
19:05 27.8 °C 11.0 °C 1016.1 hPa West 13.0 km/h 16.3 km/h 35 % 0.0 mm
19:06 27.8 °C 11.0 °C 1016.1 hPa West 14.0 km/h 15.8 km/h 35 % 0.0 mm
19:11 27.9 °C 11.0 °C 1016.1 hPa West 15.8 km/h 15.8 km/h 34 % 0.0 mm
19:16 28.1 °C 11.0 °C 1016.8 hPa West 7.9 km/h 15.8 km/h 34 % 0.0 mm
19:21 28.4 °C 12.0 °C 1016.8 hPa West 9.7 km/h 15.8 km/h 35 % 0.0 mm
19:26 28.5 °C 12.0 °C 1016.8 hPa WSW 12.2 km/h 16.6 km/h 35 % 0.0 mm
19:31 28.4 °C 12.0 °C 1016.8 hPa West 12.2 km/h 16.6 km/h 35 % 0.0 mm
19:36 28.2 °C 12.0 °C 1016.8 hPa West 13.7 km/h 16.9 km/h 35 % 0.0 mm
19:41 27.8 °C 11.0 °C 1016.8 hPa West 12.6 km/h 16.9 km/h 35 % 0.0 mm
19:46 28.0 °C 11.0 °C 1016.8 hPa WSW 15.4 km/h 16.9 km/h 35 % 0.0 mm
19:52 27.7 °C 11.0 °C 1016.8 hPa WSW 13.0 km/h 15.8 km/h 35 % 0.0 mm
19:57 27.6 °C 11.0 °C 1016.8 hPa WSW 12.2 km/h 15.8 km/h 35 % 0.0 mm
20:02 27.4 °C 11.0 °C 1016.8 hPa West 13.0 km/h 16.9 km/h 35 % 0.0 mm
20:07 27.1 °C 10.0 °C 1016.8 hPa West 11.9 km/h 19.8 km/h 34 % 0.0 mm
20:12 27.0 °C 10.0 °C 1016.8 hPa West 10.5 km/h 19.8 km/h 35 % 0.0 mm
20:17 26.6 °C 10.0 °C 1016.8 hPa West 16.3 km/h 20.1 km/h 35 % 0.0 mm
20:22 26.2 °C 10.0 °C 1016.8 hPa West 9.3 km/h 20.1 km/h 35 % 0.0 mm
20:27 25.7 °C 9.0 °C 1016.8 hPa West 7.6 km/h 17.2 km/h 35 % 0.0 mm
20:32 25.1 °C 9.0 °C 1016.8 hPa West 17.2 km/h 17.2 km/h 35 % 0.0 mm
20:37 24.6 °C 9.0 °C 1016.8 hPa West 11.6 km/h 17.2 km/h 36 % 0.0 mm
20:42 24.2 °C 9.0 °C 1016.8 hPa West 9.7 km/h 16.6 km/h 37 % 0.0 mm
20:47 23.8 °C 9.0 °C 1016.8 hPa West 9.7 km/h 14.0 km/h 39 % 0.0 mm
20:52 23.6 °C 9.0 °C 1016.8 hPa West 6.1 km/h 14.0 km/h 40 % 0.0 mm
21:02 23.3 °C 9.0 °C 1016.8 hPa West 8.7 km/h 11.9 km/h 41 % 0.0 mm
21:07 23.2 °C 10.0 °C 1016.8 hPa West 1.4 km/h 10.1 km/h 42 % 0.0 mm
21:12 23.0 °C 9.0 °C 1016.8 hPa WNW 4.7 km/h 10.1 km/h 42 % 0.0 mm
21:17 22.8 °C 9.0 °C 1016.8 hPa West 6.4 km/h 10.1 km/h 43 % 0.0 mm
21:22 22.7 °C 9.0 °C 1016.8 hPa WNW 3.5 km/h 10.1 km/h 43 % 0.0 mm
21:27 22.5 °C 10.0 °C 1016.8 hPa WNW 1.8 km/h 8.7 km/h 44 % 0.0 mm
21:32 22.3 °C 10.0 °C 1016.8 hPa Calm   6.4 km/h 44 % 0.0 mm
21:37 22.0 °C 10.0 °C 1016.8 hPa Calm   9.3 km/h 45 % 0.0 mm
21:42 21.8 °C 10.0 °C 1016.8 hPa Calm   9.3 km/h 46 % 0.0 mm
21:47 21.5 °C 10.0 °C 1016.8 hPa NW 5.0 km/h 5.0 km/h 46 % 0.0 mm
21:52 21.3 °C 10.0 °C 1016.8 hPa Calm   5.5 km/h 47 % 0.0 mm
21:58 21.0 °C 10.0 °C 1016.8 hPa West 2.1 km/h 4.3 km/h 48 % 0.0 mm
22:03 20.7 °C 10.0 °C 1016.1 hPa WNW 1.4 km/h 4.0 km/h 49 % 0.0 mm
22:08 20.6 °C 10.0 °C 1016.1 hPa Calm   5.8 km/h 49 % 0.0 mm
22:13 20.3 °C 10.0 °C 1016.1 hPa West 2.1 km/h 6.4 km/h 50 % 0.0 mm
22:18 20.4 °C 10.0 °C 1016.8 hPa WSW 4.0 km/h 6.4 km/h 50 % 0.0 mm
22:23 20.3 °C 10.0 °C 1016.8 hPa Calm   6.4 km/h 50 % 0.0 mm
22:28 20.2 °C 10.0 °C 1016.8 hPa Calm   6.4 km/h 50 % 0.0 mm
22:33 19.8 °C 10.0 °C 1016.8 hPa Calm   5.0 km/h 52 % 0.0 mm
22:38 19.5 °C 10.0 °C 1016.8 hPa Calm   3.5 km/h 53 % 0.0 mm
22:39 19.4 °C 10.0 °C 1016.8 hPa Calm   4.0 km/h 53 % 0.0 mm
22:44 19.1 °C 10.0 °C 1016.8 hPa WNW 3.2 km/h 4.7 km/h 54 % 0.0 mm
22:49 18.9 °C 10.0 °C 1016.8 hPa Calm   4.7 km/h 55 % 0.0 mm
22:55 18.8 °C 9.0 °C 1016.8 hPa Calm   4.7 km/h 55 % 0.0 mm
23:00 18.6 °C 9.0 °C 1016.8 hPa Calm   4.0 km/h 55 % 0.0 mm
23:05 18.4 °C 9.0 °C 1016.8 hPa Calm   4.0 km/h 56 % 0.0 mm
23:10 18.2 °C 10.0 °C 1016.8 hPa Calm     57 % 0.0 mm
23:15 18.0 °C 9.0 °C 1016.8 hPa Calm     57 % 0.0 mm
23:20 17.9 °C 10.0 °C 1016.8 hPa Calm     59 % 0.0 mm
23:25 17.6 °C 10.0 °C 1016.8 hPa Calm     59 % 0.0 mm
23:30 17.4 °C 10.0 °C 1016.8 hPa Calm     60 % 0.0 mm
23:35 17.3 °C 10.0 °C 1016.8 hPa Calm     62 % 0.0 mm
23:40 17.2 °C 10.0 °C 1016.8 hPa Calm   5.5 km/h 62 % 0.0 mm
23:45 17.1 °C 10.0 °C 1016.8 hPa Calm   5.5 km/h 63 % 0.0 mm
23:50 17.0 °C 10.0 °C 1016.8 hPa Calm     64 % 0.0 mm
23:55 16.9 °C 11.0 °C 1016.8 hPa Calm     65 % 0.0 mm
Le Gheer Warneton
Courtoisie de Weather Underground - 1.75 mb

Mise a jour : 17-12-17 03:27:12
Généré par Cumulus 1.9.4 (1099)